Home   Weather   Koror   Past weeks

Flag for Palau Past Weather in Koror, Palau — Yesterday and Last 2 Weeks

Now
77 °F

Partly cloudy.


Feels Like: 78 °F
Forecast: 79 / 88 °F
Wind: No wind

Location: Koror / Palau Island

Current Time: May 25, 2017 at 4:50:28 am

Latest Report: May 25, 2017 at 3:54 am


Visibility: 15 mi

Pressure: 29.77 "Hg

Humidity: 94%

Dew Point: 75 °F

Location of KororLocation

Past Weather in Koror — Graph

°F

Koror Temperature Yesterday

Maximum temperature yesterday: 86 °F (at 10:53 am)
Minimum temperature yesterday: 77 °F (at 12:54 am)
Average temperature yesterday: 81 °F

High & Low Weather Summary for the Past Weeks

 TemperatureHumidityPressure
High88 °F (May 12, 11:55 am)100% (May 13, 10:50 am)29.87 "Hg (May 13, 10:50 am)
Low75 °F (May 13, 9:50 am)66% (May 18, 2:50 pm)29.69 "Hg (May 20, 3:50 pm)
Average81 °F87%29.80 "Hg
* Reported May 10 2:50 am — May 25 2:55 am, Koror. Weather by CustomWeather, © 2017

Note: Actual official high and low records may vary slightly from our data, if they occured in-between our weather recording intervals... More about our weather records

Advertising

Koror Weather History for the Previous 24 Hours

Scroll right to see more
 ConditionsComfort  
Time TempWeatherWind HumidityBarometerVisibility
2:55 am
Thu, May 25
77 °FPartly cloudy.No wind94%29.78 "Hg15 mi
1:50 am77 °FPartly cloudy.No wind94%29.79 "Hg15 mi
12:50 am77 °FPartly cloudy.No wind94%29.80 "Hg15 mi
11:50 pm
Wed, May 24
77 °FPartly cloudy.No wind94%29.81 "Hg15 mi
10:54 pm77 °FPartly cloudy.No wind94%29.82 "Hg15 mi
9:50 pm79 °FPartly cloudy.No wind94%29.82 "Hg15 mi
8:50 pm79 °FPartly cloudy.No wind94%29.80 "Hg15 mi
7:50 pm81 °FPartly cloudy.No wind89%29.78 "Hg15 mi
6:50 pm81 °FPartly cloudy.No wind89%29.76 "Hg15 mi
5:50 pm82 °FBroken clouds.No wind84%29.75 "Hg15 mi
4:50 pm84 °FBroken clouds.3 mph79%29.74 "Hg15 mi
3:54 pm86 °FBroken clouds.7 mph75%29.73 "Hg15 mi
2:50 pm86 °FBroken clouds.8 mph75%29.75 "Hg15 mi
1:50 pm86 °FBroken clouds.7 mph75%29.77 "Hg15 mi
12:55 pm86 °FBroken clouds.8 mph75%29.80 "Hg15 mi
11:52 am86 °FBroken clouds.7 mph75%29.81 "Hg15 mi
10:53 am86 °FBroken clouds.7 mph75%29.82 "Hg15 mi
9:55 am84 °FBroken clouds.6 mph79%29.83 "Hg15 mi
8:55 am82 °FBroken clouds.5 mph84%29.84 "Hg15 mi
7:50 am79 °FBroken clouds.No wind94%29.83 "Hg15 mi
6:50 am77 °FMostly cloudy.No wind94%29.81 "Hg15 mi
5:50 am77 °FMostly cloudy.No wind94%29.80 "Hg15 mi
4:50 am77 °FMostly cloudy.No wind94%29.78 "Hg15 mi
Weather by CustomWeather, © 2017

See weather overviewHow to use our weather pages